When you browse on this site, cookies collect data to enhance your experience and personalize the content and advertising you see.
Visit our Privacy Policy to learn more. By continuing to use the site, you agree to this use of cookies and data.
  • In Hungary
  • List of Countries
  • For 7 days
  • Water Temperature
  • Satellite Maps
  • Weather Map
  • News
  • Weather Widgets
  • user-avatar
    Login

    Hourly Weather Zwevegem

    Today, 26 March, Tuesday

    Time Temperature Precipitation Wind Pressure Humidity
    00:00 +5°C° 0 mm 3 mps 772 mmHg 77%
    01:00 +4°C° 0 mm 3 mps 772 mmHg 79%
    02:00 +5°C° 0 mm 2 mps 772 mmHg 80%
    03:00 +4°C° 0 mm 2 mps 772 mmHg 81%
    04:00 +4°C° 0 mm 2 mps 772 mmHg 84%
    05:00 +4°C° 0 mm 2 mps 772 mmHg 86%
    06:00 +3°C° 0 mm 2 mps 772 mmHg 88%
    07:00 +5°C° 0 mm 2 mps 772 mmHg 82%
    08:00 +7°C° 0 mm 2 mps 772 mmHg 75%
    09:00 +8°C° 0 mm 3 mps 772 mmHg 69%
    10:00 +9°C° 0 mm 3 mps 772 mmHg 65%
    11:00 +10°C° 0 mm 3 mps 772 mmHg 61%
    12:00 +11°C° 0 mm 3 mps 772 mmHg 56%
    13:00 +11°C° 0 mm 3 mps 772 mmHg 57%
    14:00 +11°C° 0 mm 3 mps 772 mmHg 57%
    15:00 +11°C° 0 mm 3 mps 771 mmHg 58%
    16:00 +10°C° 0 mm 2 mps 771 mmHg 63%
    17:00 +9°C° 0 mm 2 mps 771 mmHg 67%
    18:00 +8°C° 0 mm 2 mps 771 mmHg 72%
    19:00 +7°C° 0 mm 2 mps 772 mmHg 75%
    20:00 +6°C° 0 mm 2 mps 772 mmHg 78%
    21:00 +5°C° 0 mm 2 mps 772 mmHg 82%
    22:00 +6°C° 0 mm 1 mps 772 mmHg 82%
    23:00 +6°C° 0 mm 1 mps 772 mmHg 83%

    Tomorrow, 27 March, Wednesday

    Time Temperature Precipitation Wind Pressure Humidity
    00:00 +5°C° 0 mm 1 mps 772 mmHg 83%
    01:00 +5°C° 0 mm 1 mps 772 mmHg 83%
    02:00 +5°C° 0 mm 1 mps 772 mmHg 82%
    03:00 +6°C° 0 mm 1 mps 772 mmHg 81%
    04:00 +6°C° 0 mm 1 mps 772 mmHg 80%
    05:00 +5°C° 0 mm 2 mps 772 mmHg 79%
    06:00 +6°C° 0 mm 2 mps 772 mmHg 78%
    07:00 +7°C° 0 mm 2 mps 772 mmHg 77%
    08:00 +8°C° 0 mm 2 mps 772 mmHg 76%
    09:00 +9°C° 0 mm 2 mps 773 mmHg 75%
    10:00 +12°C° 0 mm 2 mps 773 mmHg 70%
    11:00 +12°C° 0 mm 3 mps 772 mmHg 65%
    12:00 +13°C° 0 mm 3 mps 772 mmHg 61%
    13:00 +13°C° 0 mm 3 mps 772 mmHg 63%
    14:00 +13°C° 0 mm 3 mps 772 mmHg 65%
    15:00 +13°C° 0 mm 3 mps 772 mmHg 67%
    16:00 +11°C° 0 mm 3 mps 772 mmHg 71%
    17:00 +10°C° 0 mm 3 mps 772 mmHg 75%
    18:00 +9°C° 0 mm 3 mps 773 mmHg 79%
    19:00 +8°C° 0 mm 2 mps 773 mmHg 82%
    20:00 +7°C° 0 mm 2 mps 773 mmHg 85%
    21:00 +7°C° 0 mm 1 mps 774 mmHg 88%
    22:00 +7°C° 0 mm 1 mps 774 mmHg 89%
    23:00 +7°C° 0 mm 1 mps 774 mmHg 89%

    Day after tomorrow, 28 March, Thursday

    Time Temperature Precipitation Wind Pressure Humidity
    00:00 +7°C° 0 mm 1 mps 774 mmHg 90%
    01:00 +7°C° 0 mm 1 mps 774 mmHg 90%
    02:00 +6°C° 0 mm 1 mps 774 mmHg 90%
    03:00 +6°C° 0 mm 1 mps 774 mmHg 90%
    04:00 +6°C° 0 mm 1 mps 774 mmHg 90%
    05:00 +6°C° 0 mm 1 mps 774 mmHg 90%
    06:00 +6°C° 0 mm 1 mps 775 mmHg 90%
    07:00 +8°C° 0 mm 1 mps 775 mmHg 83%
    08:00 +10°C° 0 mm 1 mps 775 mmHg 77%
    09:00 +11°C° 0 mm 1 mps 775 mmHg 71%
    10:00 +13°C° 0 mm 2 mps 775 mmHg 66%
    11:00 +14°C° 0 mm 2 mps 775 mmHg 62%
    12:00 +15°C° 0 mm 2 mps 775 mmHg 58%
    13:00 +15°C° 0 mm 2 mps 775 mmHg 58%
    14:00 +14°C° 0 mm 3 mps 774 mmHg 58%
    15:00 +14°C° 0 mm 3 mps 774 mmHg 58%
    16:00 +13°C° 0 mm 3 mps 774 mmHg 63%
    17:00 +12°C° 0 mm 3 mps 774 mmHg 67%
    18:00 +12°C° 0 mm 2 mps 774 mmHg 72%
    19:00 +10°C° 0 mm 2 mps 774 mmHg 75%
    20:00 +9°C° 0 mm 2 mps 775 mmHg 78%
    21:00 +8°C° 0 mm 2 mps 775 mmHg 81%
    22:00 +8°C° 0 mm 2 mps 775 mmHg 83%
    23:00 +8°C° 0 mm 2 mps 775 mmHg 85%

    29 March, Friday

    Time Temperature Precipitation Wind Pressure Humidity
    00:00 +8°C° 0 mm 1 mps 775 mmHg 86%
    01:00 +8°C° 0 mm 1 mps 774 mmHg 87%
    02:00 +8°C° 0 mm 1 mps 774 mmHg 88%
    03:00 +8°C° 0 mm 1 mps 774 mmHg 89%
    04:00 +8°C° 0 mm 1 mps 774 mmHg 89%
    05:00 +7°C° 0 mm 1 mps 774 mmHg 89%
    06:00 +7°C° 0 mm 1 mps 773 mmHg 89%
    07:00 +9°C° 0 mm 1 mps 773 mmHg 82%
    08:00 +11°C° 0 mm 1 mps 773 mmHg 76%
    09:00 +13°C° 0 mm 1 mps 773 mmHg 69%
    10:00 +14°C° 0 mm 1 mps 773 mmHg 64%
    11:00 +15°C° 0 mm 1 mps 772 mmHg 59%
    12:00 +18°C° 0 mm 1 mps 772 mmHg 55%
    13:00 +18°C° 0 mm 1 mps 772 mmHg 53%
    14:00 +19°C° 0 mm 1 mps 771 mmHg 52%
    15:00 +19°C° 0 mm 1 mps 771 mmHg 51%
    16:00 +18°C° 0 mm 1 mps 770 mmHg 56%
    17:00 +16°C° 0 mm 1 mps 770 mmHg 61%
    18:00 +14°C° 0 mm 1 mps 770 mmHg 67%
    19:00 +13°C° 0 mm 1 mps 770 mmHg 70%
    20:00 +12°C° 0 mm 2 mps 770 mmHg 73%
    21:00 +10°C° 0 mm 2 mps 770 mmHg 77%
    22:00 +11°C° 0 mm 1 mps 770 mmHg 78%
    23:00 +11°C° 0 mm 1 mps 770 mmHg 80%

    30 March, Saturday

    Time Temperature Precipitation Wind Pressure Humidity
    00:00 +10°C° 0 mm 1 mps 770 mmHg 82%
    01:00 +10°C° 0 mm 1 mps 769 mmHg 83%
    02:00 +9°C° 0 mm 1 mps 769 mmHg 84%
    03:00 +8°C° 0 mm 0 mps 769 mmHg 85%
    04:00 +8°C° 0 mm 0 mps 769 mmHg 86%
    05:00 +8°C° 0 mm 0 mps 768 mmHg 86%
    06:00 +8°C° 0 mm 0 mps 768 mmHg 87%
    07:00 +9°C° 0 mm 0 mps 768 mmHg 81%
    08:00 +11°C° 0 mm 0 mps 768 mmHg 75%
    09:00 +13°C° 0 mm 0 mps 768 mmHg 69%
    10:00 +15°C° 0 mm 1 mps 768 mmHg 65%
    11:00 +18°C° 0 mm 1 mps 767 mmHg 61%
    12:00 +19°C° 0 mm 1 mps 767 mmHg 57%
    13:00 +18°C° 0 mm 2 mps 767 mmHg 59%
    14:00 +17°C° 0 mm 3 mps 766 mmHg 60%
    15:00 +17°C° 0 mm 4 mps 766 mmHg 62%
    16:00 +14°C° 0 mm 4 mps 766 mmHg 66%
    17:00 +12°C° 0 mm 5 mps 767 mmHg 70%
    18:00 +10°C° 0 mm 5 mps 767 mmHg 74%
    19:00 +9°C° 0 mm 5 mps 767 mmHg 77%
    20:00 +8°C° 0 mm 6 mps 768 mmHg 80%
    21:00 +7°C° 0 mm 6 mps 769 mmHg 82%
    22:00 +7°C° 0 mm 6 mps 769 mmHg 78%
    23:00 +5°C° 0 mm 6 mps 769 mmHg 74%

    31 March, Sunday

    Time Temperature Precipitation Wind Pressure Humidity
    00:00 +5°C° 0 mm 5 mps 770 mmHg 69%
    01:00 +5°C° 0 mm 5 mps 770 mmHg 69%
    02:00 +3°C° 0 mm 5 mps 770 mmHg 69%
    03:00 +3°C° 0 mm 5 mps 770 mmHg 68%
    04:00 +3°C° 0 mm 5 mps 771 mmHg 68%
    05:00 +2°C° 0 mm 5 mps 771 mmHg 68%
    06:00 +2°C° 0 mm 5 mps 771 mmHg 68%
    07:00 +3°C° 0 mm 6 mps 772 mmHg 64%
    08:00 +4°C° 0 mm 7 mps 772 mmHg 60%
    09:00 +4°C° 0 mm 7 mps 772 mmHg 56%
    10:00 +5°C° 0 mm 7 mps 772 mmHg 53%
    11:00 +6°C° 0 mm 7 mps 772 mmHg 49%
    12:00 +8°C° 0 mm 7 mps 772 mmHg 46%
    13:00 +8°C° 0 mm 7 mps 772 mmHg 46%
    14:00 +8°C° 0 mm 7 mps 771 mmHg 46%
    15:00 +8°C° 0 mm 7 mps 771 mmHg 46%
    16:00 +7°C° 0 mm 6 mps 771 mmHg 49%
    17:00 +6°C° 0 mm 5 mps 771 mmHg 53%
    18:00 +5°C° 0 mm 5 mps 771 mmHg 56%
    19:00 +5°C° 0 mm 5 mps 771 mmHg 57%
    20:00 +3°C° 0 mm 5 mps 771 mmHg 57%
    21:00 +2°C° 0 mm 5 mps 772 mmHg 57%
    22:00 +2°C° 0 mm 5 mps 772 mmHg 60%
    23:00 +1°C° 0 mm 5 mps 771 mmHg 62%
    Show more